DW6619 Weather Reports


Display with metric or nautical units.
time (UTC)temp
F
wind
direction
speed
MPH
gust
MPH
rain 1hr
in
rain 24hr
in
rain mn
in
humidity
%
barometer
mb
20260503031515 51 360 0.0 0.0 0.00 0.02 0.01 54 1014.0
20260503030012 52 5 0.0 8.0 0.00 0.02 0.01 53 1014.0
20260503024510 52 345 0.0 1.0 0.00 0.02 0.01 52 1014.0
20260503023025 52 33 0.0 0.0 0.00 0.02 0.01 52 1013.9
20260503021524 52 284 0.0 0.0 0.00 0.02 0.01 54 1013.9
20260503020038 52 355 0.0 0.0 0.00 0.02 0.01 53 1013.8
20260503014518 52 355 0.0 0.0 0.00 0.02 0.01 52 1013.7
20260503013013 52 17 0.0 0.0 0.00 0.02 0.01 52 1013.5
20260503011511 53 22 0.0 0.0 0.00 0.02 0.01 52 1013.4
20260503010047 53 22 0.0 0.0 0.00 0.02 0.01 51 1013.2
20260503004544 53 224 0.0 0.0 0.00 0.02 0.01 50 1012.9
20260503003020 54 27 0.0 0.0 0.00 0.02 0.01 49 1012.5
20260503001516 54 299 0.0 0.0 0.00 0.02 0.01 49 1012.5
20260503000012 55 300 0.0 0.0 0.00 0.02 0.01 47 1012.2
20260502234510 56 355 0.0 0.0 0.00 0.02 0.01 46 1012.0
20260502233028 57 68 0.0 0.0 0.00 0.02 0.01 48 1011.9
20260502231545 57 90 0.0 0.0 0.00 0.02 0.01 45 1011.7
20260502230021 57 104 0.0 0.0 0.00 0.02 0.01 45 1011.8
20260502224520 57 43 0.0 0.0 0.00 0.02 0.01 45 1011.8
20260502223019 58 5 0.0 0.0 0.00 0.02 0.01 44 1011.7
20260502221534 59 5 0.0 0.0 0.00 0.02 0.01 43 1011.6
20260502220031 59 74 0.0 0.0 0.00 0.02 0.01 42 1011.7
20260502214524 60 157 0.0 0.0 0.00 0.02 0.01 41 1011.7
20260502213021 61 70 0.0 3.0 0.00 0.02 0.01 40 1011.6
20260502211515 61 63 0.0 0.0 0.00 0.02 0.01 39 1011.6
20260502210055 62 355 0.0 0.0 0.00 0.02 0.01 38 1011.6
20260502204533 63 5 0.0 0.0 0.00 0.02 0.01 41 1011.6
20260502203047 63 345 0.0 0.0 0.00 0.02 0.01 37 1011.6
20260502201523 63 36 0.0 0.0 0.00 0.02 0.01 42 1011.6
20260502200016 62 51 0.0 0.0 0.00 0.02 0.01 39 1011.6
20260502194516 62 355 0.0 3.0 0.00 0.02 0.01 45 1011.9
20260502193014 63 342 0.0 0.0 0.00 0.02 0.01 43 1012.0
20260502191510 63 261 0.0 0.0 0.00 0.02 0.01 41 1012.2
20260502190010 63 24 0.0 2.0 0.00 0.02 0.01 45 1012.6
20260502184520 61 298 0.0 0.0 0.00 0.02 0.01 44 1012.7
20260502183038 60 290 0.0 0.0 0.00 0.02 0.01 45 1013.0
20260502181515 60 5 0.0 0.0 0.00 0.02 0.01 45 1013.2
20260502163028 56 355 0.0 0.0 0.00 0.02 0.01 49 1014.3
20260502161516 56 78 0.0 0.0 0.00 0.02 0.01 50 1014.3
20260502151509 55 148 0.0 0.0 0.00 0.02 0.01 54 1014.6
20260502123018 49 260 0.0 4.0 0.00 0.02 0.01 66 1014.5
20260502121519 49 80 0.0 1.0 0.00 0.02 0.01 66 1014.4
20260502113032 47 350 0.0 5.0 0.00 0.02 0.01 68 1014.5
20260502111527 47 34 0.0 2.0 0.00 0.02 0.01 70 1014.6
20260502110023 47 131 0.0 0.0 0.00 0.02 0.01 70 1014.4
20260502104521 47 49 0.0 1.0 0.00 0.02 0.01 70 1014.2
20260502103037 48 98 0.0 0.0 0.00 0.02 0.01 70 1014.0
20260502101533 48 103 0.0 0.0 0.00 0.02 0.01 69 1013.8
20260502070021 53 347 0.0 0.0 0.00 0.02 0.01 70 1012.7
20260502064519 53 34 0.0 0.0 0.00 0.02 0.01 70 1012.6
20260502063012 53 100 0.0 0.0 0.00 0.02 0.01 69 1012.5
20260502061535 53 63 0.0 0.0 0.00 0.02 0.01 68 1012.6
20260502060051 54 5 0.0 0.0 0.00 0.02 0.01 67 1012.7
20260502054534 54 47 0.0 0.0 0.01 0.02 0.01 67 1012.8
20260502053030 55 30 0.0 0.0 0.01 0.02 0.01 69 1012.9
20260502051526 55 91 0.0 0.0 0.01 0.02 0.01 69 1012.9
20260502050042 54 51 1.0 8.0 0.01 0.02 0.01 70 1012.9
20260502044519 54 355 0.0 1.0 0.00 0.01 0.00 73 1013.0
20260502043034 54 13 0.0 0.0 0.01 0.01 0.00 78 1013.0
20260502041511 54 74 0.0 0.0 0.01 0.01 0.00 80 1013.0
20260502040026 55 115 0.0 0.0 0.01 0.01 0.01 81 1012.9
20260502034539 55 97 0.0 1.0 0.01 0.01 0.01 79 1012.4
20260502033018 56 227 0.0 0.0 0.00 0.00 0.00 75 1012.1